CAPE
0 0 1 0 0 1 0 0 0 0 0 0 0 0 0 0 0 0 0 0 0 0 0 0 0 0 0 0 0 0 0 0 0 0 0 0 0 0 0 0 0 0 0 5 111 43 55
1 0 0 0 0 1 1 0 0 0 0 0 0 0 0 0 0 0 0 0 0 0 0 0 0 0 0 0 0 0 0 0 0 0 0 0 0 0 0 0 0 0 0 0 31 161 101
1 0 0 0 1 2 1 0 0 0 0 0 0 0 0 0 0 0 0 0 0 0 0 0 0 0 0 0 0 0 0 0 0 0 0 0 0 0 0 0 0 0 0 0 0 7 69
0 0 0 1 0 1 1 1 0 0 0 0 0 0 0 0 0 0 0 0 0 0 0 0 0 0 0 0 0 0 0 0 0 0 0 0 0 0 0 0 0 0 0 0 0 1 5
0 0 0 2 1 2 2 1 0 0 0 0 0 0 0 0 0 0 0 0 0 0 0 0 0 0 0 0 0 0 0 0 0 0 0 0 0 0 0 0 0 0 0 1 3 2 14
1 1 0 1 2 2 0 0 0 0 0 0 0 0 0 0 0 0 0 0 0 0 0 0 0 0 0 0 0 0 0 0 0 0 0 0 0 0 0 0 0 0 1 2 2 2 31
0 1 1 1 0 1 1 0 0 0 0 0 0 0 0 0 0 0 0 0 0 0 0 0 0 0 0 0 0 0 0 0 0 0 0 0 0 0 0 0 0 0 0 2 41 72 1
1 1 1 1 1 2 1 0 0 0 0 0 0 0 0 0 0 0 0 0 0 0 0 0 0 0 0 0 0 0 0 0 0 0 0 0 0 0 0 0 0 0 0 0 2 79 47
5 5 2 2 1 1 0 0 0 0 0 0 0 0 0 0 0 0 0 0 0 0 0 0 0 0 0 0 0 0 0 0 0 0 0 0 0 0 0 0 0 0 0 0 0 0 12
6 4 0 0 1 0 0 0 0 0 0 0 0 0 0 0 0 0 0 0 0 0 0 0 0 0 0 0 0 0 0 0 0 0 0 0 0 0 0 0 0 0 0 0 0 0 0
5 3 1 0 0 0 0 0 0 0 0 0 0 0 0 0 0 0 0 0 0 0 0 0 0 0 0 0 0 0 0 0 0 0 0 0 0 0 0 0 0 0 0 0 0 0 0
7 2 1 0 0 0 0 0 0 0 0 0 0 0 0 0 0 0 0 0 0 0 0 0 0 0 0 0 0 0 0 0 0 0 0 0 0 0 0 0 0 0 0 0 0 0 0
0 1 3 0 0 0 0 0 0 0 0 0 0 0 0 0 0 0 0 0 0 0 0 0 0 0 0 0 0 0 0 0 0 0 0 0 0 0 0 0 0 0 0 0 0 0 0
4 3 6 0 0 0 0 0 0 0 0 0 0 0 0 0 0 0 0 0 0 0 0 0 0 0 0 0 0 0 0 0 0 0 0 0 0 0 0 0 0 0 0 0 0 0 0
5 5 1 0 0 0 0 0 0 0 0 0 0 0 0 0 0 0 0 0 0 0 0 0 0 0 0 0 0 0 0 0 0 0 0 0 0 0 0 0 0 0 0 0 0 0 0
3 6 3 4 0 0 0 0 0 0 0 0 0 0 0 0 0 0 0 0 0 0 0 0 0 0 0 0 0 0 0 0 0 0 0 0 0 0 0 0 0 0 0 0 0 0 0
3 4 1 0 0 3 0 0 0 0 0 0 0 0 0 0 0 0 0 0 0 0 0 0 0 0 0 0 0 0 0 0 0 0 0 0 0 0 0 0 0 0 0 0 0 0 0
4 1 5 0 0 0 0 0 0 0 0 0 0 0 0 0 0 0 0 0 0 0 0 0 0 0 0 0 0 0 0 0 0 0 0 0 0 0 0 0 0 0 0 0 0 0 36
0 0 5 0 0 0 0 0 0 0 0 0 0 0 0 0 0 0 0 0 0 0 0 0 0 0 0 0 0 0 0 0 0 0 2 1 0 0 0 0 0 0 0 0 0 0 0
1 6 0 0 0 0 1 0 0 0 0 0 0 0 0 0 0 0 0 0 0 0 0 0 0 0 0 0 0 0 0 0 0 6 2 0 1 0 0 10 8 1 0 0 0 0 0
4 6 0 0 4 4 0 0 0 0 0 0 0 0 0 0 0 0 0 0 0 0 0 0 0 0 0 0 0 0 0 0 0 0 0 0 0 0 7 68 1 4 1 11 18 0 0
5 2 1 4 0 0 0 0 0 0 0 0 0 0 0 0 0 0 0 0 0 0 0 0 0 0 0 0 0 0 0 0 0 0 0 0 0 0 0 41 72 7 14 65 51 0 0
5 5 3 0 0 0 0 0 0 0 0 0 0 0 0 0 0 0 0 0 0 0 0 0 0 0 0 0 0 0 0 0 0 10 11 1 0 0 0 17 67 2 35 95 85 31 37
0 11 3 2 1 3 2 1 0 0 0 0 0 0 0 0 0 0 0 0 0 0 1 0 0 0 0 0 0 0 0 0 0 0 29 201 160 0 0 68 2 44 5 14 13 121 142
3 3 3 3 1 4 4 3 3 1 0 0 0 0 0 0 0 0 0 0 0 0 0 0 0 0 0 0 0 0 0 0 0 0 0 10 119 163 24 5 52 44 162 36 144 644 220
7 5 2 3 6 7 4 9 3 4 0 0 0 0 0 0 0 0 0 0 0 0 0 0 8 5 0 0 0 0 0 0 0 0 0 0 42 82 61 20 24 45 62 7 105 339 584
3 9 8 9 10 13 8 14 2 4 0 0 0 0 0 0 0 0 0 0 0 0 0 6 0 31 0 0 0 0 0 0 0 0 0 0 0 17 0 4 0 35 55 80 75 334 924
3 7 17 16 6 1 1 7 3 5 2 0 0 0 0 0 0 0 0 0 0 0 0 0 26 29 47 0 0 0 0 0 0 0 14 0 0 0 0 3 0 780 344 211 1222 1105 1031
6 1 1 2 5 5 7 4 4 6 3 0 0 0 0 0 0 0 0 0 0 0 0 2 0 0 55 59 1 0 11 116 130 113 142 24 62 137 104 265 784 924 1092 1084 1332 974 869
CIN
-0 -0 -0 -0 -0 -0 -0 -0 -0 -0 -0 -0 -0 -0 -0 -0 -0 -0 -0 -0 -0 -0 -0 -0 -0 -0 -0 -0 -0 -0 -0 -0 -0 -0 -0 -0 -0 -0 -0 -0 -0 -0 -0 -40 -18 -16 -20
-1 -0 -0 -0 -0 -0 -0 -0 -0 -0 -0 -0 -0 -0 -0 -0 -0 -0 -0 -0 -0 -0 -0 -0 -0 -0 -0 -0 -0 -0 -0 -0 -0 -0 -0 -0 -0 -0 -0 -0 -0 -0 -0 -0 -43 -25 -11
-0 -0 -0 -0 -0 -0 -0 -0 -0 -0 -0 -0 -0 -0 -0 -0 -0 -0 -0 -0 -0 -0 -0 -0 -0 -0 -0 -0 -0 -0 -0 -0 -0 -0 -0 -0 -0 -0 -0 -0 -0 -0 -0 -0 -0 -1 -37
-0 -0 -0 -0 -0 -0 -0 -0 -0 -0 -0 -0 -0 -0 -0 -0 -0 -0 -0 -0 -0 -0 -0 -0 -0 -0 -0 -0 -0 -0 -0 -0 -0 -0 -0 -0 -0 -0 -0 -0 -0 -0 -0 -0 -0 -18 -110
-1 -0 -0 -0 -0 -0 -0 -0 -0 -0 -0 -0 -0 -0 -0 -0 -0 -0 -0 -0 -0 -0 -0 -0 -0 -0 -0 -0 -0 -0 -0 -0 -0 -0 -0 -0 -0 -0 -0 -0 -0 -0 -0 -36 -60 -43 -95
-0 -0 -0 -0 -0 -0 -0 -0 -0 -0 -0 -0 -0 -0 -0 -0 -0 -0 -0 -0 -0 -0 -0 -0 -0 -0 -0 -0 -0 -0 -0 -0 -0 -0 -0 -0 -0 -0 -0 -0 -0 -0 -38 -32 -32 -53 -82
-0 -1 -1 -0 -0 -0 -0 -0 -0 -0 -0 -0 -0 -0 -0 -0 -0 -0 -0 -0 -0 -300 -0 -0 -0 -0 -0 -0 -0 -0 -0 -0 -0 -0 -0 -0 -0 -0 -0 -0 -0 -0 -0 -11 -81 -105 -16
-0 -1 -0 -0 -0 -0 -0 -0 -0 -0 -0 -0 -0 -0 -0 -0 -0 -0 -0 -0 -0 -0 -0 -0 -0 -0 -0 -0 -0 -0 -0 -0 -0 -0 -0 -0 -0 -0 -0 -0 -0 -0 -0 -0 -29 -82 -144
-0 -0 -0 -0 -0 -0 -0 -0 -0 -0 -0 -0 -0 -0 -0 -0 -0 -0 -0 -0 -0 -0 -0 -0 -0 -0 -0 -0 -0 -0 -0 -0 -0 -0 -0 -0 -0 -0 -0 -0 -0 -0 -0 -0 -0 -0 -58
-0 -0 -0 -0 -0 -0 -0 -0 -0 -0 -0 -0 -0 -0 -0 -0 -0 -0 -0 -0 -0 -0 -0 -0 -0 -0 -0 -0 -0 -0 -0 -0 -0 -0 -0 -0 -0 -0 -0 -0 -0 -0 -0 -0 -0 -0 -0
-1 -1 -0 -0 -0 -0 -0 -0 -0 -0 -0 -0 -0 -0 -0 -0 -0 -0 -0 -0 -0 -0 -0 -0 -0 -0 -0 -0 -0 -0 -0 -0 -0 -0 -0 -0 -0 -0 -0 -0 -0 -0 -0 -0 -0 -0 -0
-3 -0 -0 -0 -0 -0 -0 -0 -0 -0 -0 -0 -0 -0 -0 -0 -0 -0 -0 -0 -0 -0 -0 -0 -0 -0 -0 -0 -0 -0 -0 -0 -0 -0 -0 -0 -0 -0 -0 -0 -0 -0 -0 -0 -0 -0 -0
-0 -0 -0 -0 -0 -0 -0 -0 -0 -0 -0 -0 -0 -0 -0 -0 -0 -0 -0 -0 -0 -0 -0 -0 -0 -0 -0 -0 -0 -0 -0 -0 -0 -0 -0 -0 -0 -0 -0 -0 -0 -0 -0 -0 -0 -0 -0
-0 -0 -0 -0 -0 -0 -0 -0 -0 -0 -0 -0 -0 -0 -0 -0 -0 -0 -0 -0 -0 -0 -0 -0 -0 -0 -0 -0 -0 -0 -0 -0 -0 -0 -0 -0 -0 -0 -0 -0 -0 -0 -0 -0 -0 -0 -0
-0 -0 -0 -1 -0 -0 -0 -0 -0 -0 -0 -0 -0 -0 -0 -0 -0 -0 -0 -0 -0 -0 -0 -0 -0 -0 -0 -0 -0 -0 -0 -0 -0 -0 -0 -0 -0 -0 -0 -0 -0 -0 -0 -0 -0 -0 -0
-0 -0 -0 -0 -0 -0 -0 -0 -0 -0 -0 -0 -0 -0 -0 -0 -0 -0 -0 -0 -0 -0 -0 -0 -0 -0 -0 -0 -0 -0 -0 -0 -0 -0 -0 -0 -0 -0 -0 -0 -0 -0 -0 -0 -0 -0 -0
-0 -0 -0 -0 -0 -1 -0 -0 -0 -0 -0 -0 -0 -0 -0 -0 -0 -0 -0 -0 -0 -0 -0 -0 -0 -0 -0 -0 -0 -0 -0 -0 -0 -0 -0 -0 -0 -0 -0 -0 -0 -0 -0 -0 -0 -0 -0
-0 -0 -0 -0 -0 -0 -0 -0 -0 -0 -0 -0 -0 -0 -0 -0 -0 -0 -0 -0 -0 -0 -0 -0 -0 -0 -0 -0 -0 -0 -0 -0 -0 -0 -0 -0 -0 -0 -0 -0 -0 -0 -0 -0 -0 -0 -15
-0 -0 -0 -0 -0 -0 -0 -0 -0 -0 -0 -0 -0 -0 -0 -0 -0 -0 -0 -0 -0 -0 -0 -0 -0 -0 -0 -0 -0 -0 -0 -0 -0 -4 -6 -5 -0 -0 -0 -0 -0 -0 -0 -0 -0 -0 -0
-0 -0 -0 -0 -0 -0 -0 -0 -0 -0 -0 -0 -0 -0 -0 -0 -0 -0 -0 -0 -0 -0 -0 -0 -0 -0 -0 -0 -0 -0 -0 -0 -0 -44 -57 -0 -4 -0 -0 -2 -15 -1 -0 -0 -0 -0 -0
-0 -0 -0 -0 -0 -0 -0 -0 -0 -0 -0 -0 -0 -0 -0 -0 -0 -0 -0 -0 -0 -0 -0 -0 -0 -0 -0 -0 -0 -0 -0 -0 -0 -0 -0 -0 -0 -0 -74 -39 -10 -24 -15 -10 -7 -0 -0
-0 -0 -0 -0 -0 -0 -0 -0 -0 -0 -0 -0 -0 -0 -0 -0 -0 -0 -0 -0 -0 -0 -0 -0 -0 -0 -0 -0 -0 -0 -0 -0 -0 -0 -0 -0 -0 -0 -0 -45 -18 -62 -17 -0 -7 -1 -0
-0 -0 -0 -0 -0 -0 -0 -0 -0 -0 -0 -0 -0 -0 -0 -0 -0 -0 -0 -0 -0 -0 -0 -0 -0 -0 -0 -0 -0 -0 -0 -0 -0 -16 -3 -1 -0 -0 -0 -32 -22 -4 -6 -4 -4 -11 -24
-0 -0 -3 -0 -0 -0 -0 -0 -1 -0 -0 -0 -0 -0 -0 -0 -0 -0 -0 -0 -0 -18 -3 -0 -0 -0 -0 -0 -0 -0 -0 -0 -0 -0 -30 -18 -13 -5 -0 -22 -4 -34 -18 -31 -25 -27 -48
-0 -0 -0 -0 -0 -0 -0 -0 -0 -1 -0 -0 -0 -0 -0 -0 -0 -0 -0 -0 -0 -0 -4 -0 -0 -0 -0 -0 -0 -0 -0 -0 -0 -0 -0 -26 -9 -7 -8 -20 -23 -25 -13 -34 -23 -39 -62
-0 -0 -0 -0 -0 -0 -0 -0 -0 -0 -0 -0 -0 -0 -0 -0 -0 -0 -0 -0 -0 -0 -0 -6 -90 -20 -0 -0 -0 -0 -0 -0 -0 -0 -0 -0 -15 -11 -20 -17 -10 -35 -17 -27 -17 -18 -53
-0 -0 -0 -0 -1 -0 -0 -0 -0 -0 -0 -0 -0 -0 -0 -0 -0 -0 -0 -0 -0 -0 -0 -34 -0 -34 -0 -0 -0 -0 -0 -0 -0 -0 -0 -0 -0 -13 -0 -8 -0 -23 -28 -36 -7 -47 -80
-0 -0 -0 -0 -0 -0 -0 -0 -0 -0 -0 -0 -0 -0 -0 -0 -0 -0 -0 -0 -0 -0 -0 -0 -87 -120 -21 -0 -0 -0 -0 -0 -0 -0 -11 -0 -0 -0 -1 -13 -0 -54 -8 -4 -68 -123 -101
-0 -0 -0 -0 -0 -0 -0 -0 -0 -0 -0 -0 -0 -0 -0 -0 -0 -0 -0 -0 -0 -0 -0 -10 -0 -0 -54 -51 -23 -0 -15 -29 -30 -11 -118 -26 -114 -57 -40 -37 -70 -100 -60 -56 -72 -142 -186
Wind_Speed
20 20 20 20 21 21 22 22 22 23 23 24 24 24 25 25 25 25 25 25 25 24 24 23 21 20 18 18 19 14 10 11 10 9 19 20 19 19 20 20 19 17 14 11 11 11 7
21 21 21 21 22 22 22 23 23 24 24 25 25 25 26 26 26 26 26 26 26 25 24 22 20 19 18 18 12 10 9 9 9 7 20 21 20 16 21 22 23 21 21 20 14 16 5
21 21 21 22 22 22 23 23 24 24 25 25 26 26 26 27 27 27 27 27 27 25 24 21 19 19 20 22 10 9 7 12 7 7 18 20 23 24 24 25 18 22 22 20 25 26 25
21 21 21 22 22 23 23 23 24 25 25 26 26 27 27 27 28 28 28 29 28 26 23 19 18 19 22 14 8 7 7 7 9 11 20 24 10 25 23 22 25 25 26 24 30 30 28
21 21 21 21 22 22 23 24 24 25 26 26 27 27 27 28 28 29 30 30 28 23 18 18 18 17 22 14 17 3 5 5 8 3 21 23 23 21 22 24 25 12 21 22 37 35 28
21 21 22 22 22 23 23 24 26 26 26 27 27 28 28 28 29 29 30 29 20 17 17 17 22 22 23 19 11 4 1 3 12 18 20 18 18 9 21 17 21 25 19 17 13 12 15
21 22 22 23 23 23 23 25 26 26 27 28 28 29 29 29 29 29 27 22 21 20 19 20 16 20 24 12 7 7 3 9 10 16 19 14 13 12 8 9 10 18 30 14 5 8 7
22 22 23 23 24 24 25 26 27 27 28 29 29 30 30 31 31 30 23 21 19 24 31 32 38 37 35 23 14 12 1 10 11 16 15 21 8 3 9 25 31 32 31 26 14 8 5
23 23 24 25 25 26 27 27 28 29 30 30 31 31 32 33 33 24 24 27 23 26 27 30 17 22 16 18 17 9 3 5 13 17 17 14 5 11 3 22 32 30 28 29 8 28 3
23 24 24 25 26 27 28 29 30 31 31 32 32 33 33 34 24 24 22 20 23 25 28 29 16 16 11 14 18 15 7 6 19 13 11 19 13 30 24 20 22 28 23 19 19 18 21
24 25 26 27 27 28 29 30 31 32 33 33 33 33 33 28 27 22 23 25 25 20 28 20 11 8 6 10 17 9 10 8 12 17 16 19 24 23 19 26 20 21 26 27 27 27 30
25 26 27 28 28 29 30 31 32 33 34 34 34 33 32 20 21 22 29 27 21 19 27 18 10 10 10 9 11 27 7 8 16 22 24 35 31 31 14 17 10 24 26 30 23 25 33
26 27 27 28 29 30 31 32 33 34 35 36 36 35 30 23 18 22 24 18 17 21 21 18 11 9 15 12 12 14 5 7 14 17 18 36 37 35 22 24 29 9 17 26 26 22 2
27 28 28 29 30 31 32 33 35 36 37 37 38 37 26 19 19 22 18 17 16 20 20 22 18 10 12 11 9 7 8 7 7 9 30 16 29 18 9 7 13 18 7 11 24 24 24
28 28 29 30 30 31 32 33 35 37 38 38 37 26 22 20 15 15 15 21 19 19 21 24 28 26 24 11 9 9 9 7 6 8 17 24 31 30 11 9 2 19 22 3 10 24 29
28 28 28 29 30 31 31 33 35 36 37 36 29 25 24 16 6 10 18 25 23 27 29 28 30 25 27 30 29 28 20 8 7 9 10 35 37 31 27 8 6 11 16 16 14 18 11
29 29 29 29 30 31 32 33 34 36 36 32 22 22 19 6 5 16 25 26 29 32 31 25 30 30 29 28 29 34 27 16 8 6 10 10 24 36 28 15 5 18 15 20 20 13 10
29 29 29 29 31 32 32 33 34 35 35 26 20 19 5 3 17 22 29 26 27 36 36 34 34 33 32 33 32 32 30 11 18 7 9 10 21 26 34 33 14 13 20 10 10 18 18
29 29 29 30 31 31 32 33 33 33 31 26 22 21 10 11 24 28 30 34 38 38 38 35 32 25 34 36 31 27 26 18 24 27 14 17 18 23 29 31 19 14 15 17 8 14 25
28 29 29 30 31 31 31 33 33 33 31 23 19 20 20 21 25 32 36 37 36 34 38 39 37 31 33 36 33 30 30 19 25 13 12 14 18 14 22 18 18 23 27 9 11 11 6
27 27 29 29 30 29 31 32 33 33 32 18 16 19 20 21 26 29 32 34 37 36 33 31 34 30 33 32 36 34 34 30 29 22 18 19 24 25 28 29 32 31 1 27 33 12 23
27 28 28 28 29 30 31 31 32 32 29 15 20 21 24 28 27 28 28 29 34 36 34 28 29 33 36 36 33 36 32 32 28 26 23 23 30 32 35 33 32 25 34 21 13 9 7
27 27 27 28 29 30 30 30 30 30 26 19 23 23 24 27 28 28 28 31 32 33 40 35 33 27 33 37 28 30 31 31 29 25 25 26 24 30 39 33 33 34 22 22 22 18 19
27 26 26 27 28 28 28 27 27 27 25 22 23 23 23 27 28 29 32 33 31 33 35 34 33 31 26 22 25 29 31 29 28 29 23 22 19 26 31 31 40 29 23 25 23 24 20
26 26 27 27 27 26 26 26 25 25 25 23 24 20 22 26 27 29 29 31 29 30 28 30 25 20 22 21 26 27 31 31 31 31 30 24 21 23 25 31 32 33 20 21 24 21 8
26 26 26 26 25 24 23 23 23 24 25 24 23 20 21 23 18 25 28 26 26 29 28 26 26 23 20 23 25 31 29 29 30 31 32 33 26 20 21 26 29 29 25 21 24 22 11
26 25 25 24 23 24 23 22 22 23 24 24 18 19 20 22 25 23 23 27 27 27 29 27 28 26 20 25 29 31 34 31 33 31 29 34 32 25 23 26 26 28 19 14 14 15 3
25 26 25 24 24 24 24 23 23 22 23 23 17 19 19 21 31 27 26 26 26 23 23 27 27 23 24 29 30 31 31 32 35 34 33 26 31 30 27 27 31 24 18 16 9 9 5
26 26 26 25 25 24 23 23 23 23 22 22 12 22 24 21 22 30 36 36 30 29 23 20 20 21 23 24 24 26 30 25 25 27 23 24 19 23 20 21 20 18 14 14 7 6 6
Wind_Direction
314 315 315 313 310 307 305 304 303 302 302 302 303 301 301 300 299 299 299 300 300 300 301 301 302 304 308 294 283 321 330 324 338 0 169 186 181 219 208 207 228 218 202 198 189 202 117
313 313 313 312 310 308 306 304 303 302 301 301 300 298 300 299 298 297 296 296 297 297 300 305 307 309 308 293 335 358 344 342 351 43 182 208 190 173 227 238 247 246 248 247 213 220 136
310 311 311 309 308 307 306 305 303 302 301 301 300 298 299 298 296 295 293 292 291 292 298 306 310 306 294 265 3 23 20 310 23 65 166 202 223 243 251 256 218 256 247 232 304 302 263
308 309 310 307 307 305 304 304 305 303 301 301 300 298 297 296 295 293 290 288 283 290 300 309 310 305 279 310 29 27 35 23 103 114 197 256 206 243 238 237 251 263 270 310 304 301 287
310 310 308 306 306 304 303 302 308 303 302 301 300 298 297 296 295 293 291 287 280 298 312 307 303 308 283 307 288 58 46 43 113 278 294 267 279 262 232 250 262 269 320 329 311 280 244
317 312 311 310 307 303 307 304 307 304 301 299 298 296 295 294 295 296 295 294 315 316 313 309 284 288 276 290 320 321 13 54 317 294 294 311 317 341 282 292 310 286 340 341 11 78 185
320 321 319 317 311 308 303 306 306 303 301 300 297 295 293 292 291 295 304 312 303 301 304 288 294 287 283 314 20 323 328 309 317 303 297 319 333 322 332 178 192 222 289 346 26 161 92
322 322 321 319 316 308 306 305 303 302 300 298 296 294 293 290 289 291 308 312 319 302 285 274 249 251 248 285 303 299 29 295 298 294 305 296 321 178 193 234 260 283 295 315 353 181 154
325 323 321 318 314 313 311 307 303 302 301 300 298 297 295 292 289 300 302 293 315 306 292 285 283 276 278 284 287 291 230 271 291 291 295 302 275 317 334 302 277 291 300 274 357 279 344
325 323 321 319 316 313 310 310 308 305 303 302 301 300 300 297 298 303 303 319 317 308 292 287 293 280 266 277 280 288 216 272 286 288 300 296 295 281 295 313 309 296 312 226 236 331 322
325 323 319 317 315 313 311 310 309 308 306 303 302 301 299 303 292 294 303 309 309 314 287 306 289 326 293 226 305 278 230 248 279 284 292 292 290 295 303 295 312 309 245 254 312 310 304
326 322 320 318 315 313 311 310 308 306 304 302 299 300 300 309 300 296 291 298 305 296 282 303 300 294 290 274 272 286 233 251 286 282 284 263 277 279 310 308 305 298 302 288 320 320 294
325 323 321 320 317 314 311 310 308 305 303 300 295 291 295 296 294 300 299 299 291 283 294 295 290 284 291 278 278 285 215 227 276 282 284 262 259 263 292 291 279 315 314 304 305 318 311
327 324 322 319 317 315 314 312 310 307 303 299 292 285 292 292 288 294 293 281 283 288 279 286 303 279 279 291 252 257 258 232 239 270 271 289 269 271 293 296 309 302 310 325 306 306 315
327 325 323 322 320 316 315 314 312 309 305 302 294 297 291 289 281 285 283 269 279 281 279 290 290 277 266 271 276 234 226 227 251 241 272 278 247 265 272 282 248 304 296 269 330 310 309
326 325 324 323 323 320 318 317 315 312 308 302 299 295 285 277 275 274 274 271 275 269 277 285 274 277 270 264 268 272 274 238 280 206 207 256 258 270 285 196 262 321 302 315 325 323 319
328 326 325 324 325 323 321 320 318 316 313 302 300 292 289 249 263 266 266 271 269 263 268 279 274 271 269 269 271 270 274 280 207 291 212 213 273 252 273 303 270 288 313 295 309 329 333
331 327 327 325 324 325 325 324 323 322 319 319 295 288 295 186 271 270 265 272 276 263 266 265 267 266 266 266 272 275 277 270 285 247 257 239 274 275 266 259 295 295 301 300 288 308 316
330 327 329 328 326 325 326 326 326 325 328 311 289 285 280 270 274 270 270 267 264 263 262 261 266 276 264 257 269 273 277 280 295 284 265 275 265 274 276 272 295 293 310 294 282 303 286
328 328 326 325 325 324 328 327 325 322 320 315 295 281 279 266 274 271 267 265 265 266 260 260 262 267 265 254 262 267 263 282 290 322 307 289 284 262 270 282 310 294 278 297 297 293 287
324 328 327 325 326 330 329 326 325 321 314 316 297 283 296 282 270 281 275 267 266 264 269 266 263 264 262 262 256 258 255 261 276 283 291 287 269 270 266 273 271 274 263 279 274 297 291
322 325 326 328 327 327 327 325 326 324 314 315 297 293 289 283 285 283 280 276 269 263 267 270 266 266 259 258 261 254 257 261 273 280 282 279 267 265 260 267 272 289 261 295 315 213 206
317 319 322 323 323 323 323 325 329 331 325 306 308 299 290 280 281 281 276 275 273 270 263 269 270 265 262 259 272 266 262 262 272 279 275 275 274 265 252 265 266 262 294 305 302 306 315
311 317 319 317 317 317 318 318 321 327 330 313 305 300 289 280 279 276 277 281 277 271 272 262 264 275 269 277 275 268 260 268 272 269 279 284 285 268 260 266 249 268 299 298 301 303 317
309 310 309 309 309 309 310 312 314 318 320 313 305 307 293 283 283 280 281 280 281 279 276 262 264 284 283 275 262 263 257 264 265 264 266 276 281 276 271 267 272 265 297 304 300 315 344
311 309 303 300 300 300 299 301 307 314 317 313 307 317 301 290 280 288 280 287 278 277 271 264 274 282 283 268 261 254 257 261 264 264 262 261 272 277 281 276 273 276 291 297 298 296 317
305 306 303 301 296 300 303 298 297 306 312 313 334 334 310 292 284 293 279 280 281 279 268 272 273 275 273 268 258 258 256 262 261 263 264 258 262 269 272 275 280 284 301 293 274 297 353
304 300 298 302 303 302 302 301 300 299 308 311 280 332 320 301 281 284 282 278 276 277 272 276 267 270 270 261 257 256 261 261 262 262 264 260 257 261 268 270 269 291 300 289 302 319 347
301 299 297 296 298 297 298 298 299 300 300 305 53 315 309 314 302 285 269 261 268 265 271 276 270 272 270 268 267 260 261 268 267 258 274 258 269 264 275 268 286 299 313 320 328 317 327